COSMOS 2251 DEB, 40239

Orbit data source: Space-Track

COSMOS 2251 DEB, 40239 is space debris in LEO originally from a launch on Wed, 16 Jun 1993 UTC launched from the Plesetsk Missile And Space Complex (PKMTR). The debris from Iridium 33, an American commercial communications satellite, has been tracked extensively since its accidental collision with the defunct Russian satellite Cosmos 2251 in 2009. This event, occurring at high speed in low Earth orbit (LEO), generated thousands of pieces of space debris, significantly increasing the risk of further collisions. The Iridium 33 debris cloud has impacted space traffic management and orbital debris mitigation strategies, making it a subject of ongoing study in space situational awareness.

Loading next visibility...
Identifier
40239, 1993-036BVU
Orbit
LEO
Country
Flag of CISCIS
Related business
Manufacturer
Unknown
Mission
Spacecraft
Bus & Motor
Unknown
Mass
Unknown
Launch date (UTC)
1993-06-16 (33 years ago)
Launch vehicle
Unknown
Launch site
Plesetsk Missile And Space Complex (PKMTR)
Object type
Payload
Rocket body
Debris
Shape & HBR
Unknown shape, 0.1 m
Radar Cross Section
Small (<0.1 m²)

Expand to show TLE details & history
Last TLE update: 3 days ago

TLE from 3 days ago
0 COSMOS 2251 DEB
1 40239U 93036BVU 26170.56309398  .00000762  00000-0  14832-3 0  9994
2 40239  74.0300 273.9799 0085835 338.2095  39.0435 14.62654590623714
Epoch: 2026-06-19T13:30Z
TLE epoch observation values (Epoch: 2026-06-19T13:30:51.319Z)
Latitude
17.15989°
Longitude
168.51792°
Altitude
639.761 km
Speed
7.565 km/s
True Right ascension
18h 36m 05s
True Declination
17° 03' 42"
Sunlit
Object was in full shadow at epoch
Visualization orbit readout
Latitude
Unknown
Longitude
Unknown
Altitude
Unknown
Speed
Unknown
Apparent Right ascension
Unknown
Apparent Declination
Unknown
Sunlit
N/A
Visualization observer readout
Local Sidereal Time
23:18:58
Azimuth
Unknown
Elevation
Unknown
Doppler factor
Unknown
Orbital elements
Apogee altitude
742.813 km
Perigee altitude
621.608 km
Semi-major axis
7,060.347 km
Eccentricity
0.00858
Inclination
74.03°
RAAN
273.9799°
Arg. of periapsis
338.2095°
True anomaly
39.66827°
Mean anomaly
39.0435°
Eccentric anomaly
39.35536°
Mean motion
3.65851 °/min
Orbital period
98.4 mins
BSTAR
0.00014832
Loading maneuver chart data...
Computing Atmospheric mass density...

Documentation

Showing up to 5 results
|